Location: *
(52.2090°N, 4.1550°W)
Time: 00:45:48
(UTC+00:00)

Cosmos 1400 Rocket - Pass Details

Date: 19 July 2019
Orbit: 522 x 568 km, 81.2° (Epoch: 21 August)

Event Time Altitude Azimuth Distance (km) Brightness Sun altitude
Rises 22:19:50 0° 354° (N) 2,786 7.8 -12.2°
Reaches altitude 10° 22:22:18 10° 7° (N) 1,882 6.4 -12.4°
Maximum altitude 22:25:53 27° 66° (ENE) 1,107 4.3 -12.7°
Enters shadow 22:28:32 15° 117° (ESE) 1,572 4.7 -12.9°
